TimeCDT,TemperatureF,Dew PointF,Humidity,Sea Level PressureIn,VisibilityMPH,Wind Direction,Wind SpeedMPH,Gust SpeedMPH,PrecipitationIn,Events,Conditions,WindDirDegrees,DateUTC
12:52 AM,63.0,32.0,31,29.89,10.0,South,13.8,-,N/A,,Clear,190,2014-03-21 05:52:00
1:52 AM,62.1,36.0,38,29.88,10.0,SSW,16.1,-,N/A,,Clear,200,2014-03-21 06:52:00
2:52 AM,61.0,39.9,46,29.86,10.0,South,13.8,-,N/A,,Clear,180,2014-03-21 07:52:00
3:52 AM,62.1,43.0,50,29.83,10.0,South,11.5,-,N/A,,Clear,170,2014-03-21 08:52:00
4:52 AM,62.1,45.0,53,29.81,10.0,South,15.0,-,N/A,,Clear,170,2014-03-21 09:52:00
5:52 AM,61.0,46.9,60,29.80,10.0,South,16.1,23.0,N/A,,Clear,190,2014-03-21 10:52:00
6:52 AM,61.0,48.0,62,29.79,10.0,South,15.0,-,N/A,,Clear,180,2014-03-21 11:52:00
7:52 AM,61.0,48.9,64,29.80,10.0,South,15.0,20.7,N/A,,Clear,180,2014-03-21 12:52:00
8:52 AM,61.0,51.1,70,29.81,10.0,South,12.7,19.6,N/A,,Clear,180,2014-03-21 13:52:00
9:49 AM,62.6,53.6,72,29.87,10.0,SSW,8.1,-,N/A,,Mostly Cloudy,200,2014-03-21 14:49:00
9:52 AM,63.0,54.0,72,29.83,10.0,South,10.4,-,N/A,,Mostly Cloudy,170,2014-03-21 14:52:00
10:16 AM,64.9,55.0,70,29.87,10.0,South,13.8,-,N/A,,Scattered Clouds,190,2014-03-21 15:16:00
10:52 AM,66.0,55.9,70,29.82,10.0,SSW,17.3,28.8,N/A,,Clear,210,2014-03-21 15:52:00
11:52 AM,69.1,55.9,63,29.80,10.0,SSW,18.4,32.2,N/A,,Clear,210,2014-03-21 16:52:00
12:52 PM,71.1,55.0,57,29.81,10.0,SSW,23.0,29.9,N/A,,Clear,200,2014-03-21 17:52:00
1:52 PM,75.9,55.0,48,29.78,10.0,SSW,21.9,28.8,N/A,,Clear,210,2014-03-21 18:52:00
2:52 PM,79.0,53.1,40,29.75,10.0,SSW,15.0,27.6,N/A,,Clear,200,2014-03-21 19:52:00
3:52 PM,77.0,55.0,47,29.75,10.0,South,15.0,-,N/A,,Clear,190,2014-03-21 20:52:00
4:52 PM,79.0,54.0,42,29.73,10.0,South,17.3,-,N/A,,Clear,180,2014-03-21 21:52:00
5:52 PM,81.0,51.1,35,29.72,10.0,South,11.5,-,N/A,,Clear,190,2014-03-21 22:52:00
6:52 PM,80.1,52.0,38,29.71,10.0,SSE,13.8,-,N/A,,Clear,150,2014-03-21 23:52:00
7:52 PM,73.9,52.0,46,29.73,10.0,SE,11.5,-,N/A,,Clear,130,2014-03-22 00:52:00
8:52 PM,70.0,51.1,51,29.77,10.0,North,-9999.0,-,N/A,,Clear,0,2014-03-22 01:52:00
9:52 PM,69.1,43.0,39,29.83,10.0,North,15.0,-,N/A,,Clear,10,2014-03-22 02:52:00
10:52 PM,66.0,42.1,42,29.85,10.0,NNE,12.7,-,N/A,,Clear,30,2014-03-22 03:52:00
11:52 PM,63.0,37.0,38,29.88,10.0,North,10.4,-,N/A,,Clear,10,2014-03-22 04:52:00